User: anonymous   Login
Location: Brno
(49.2000°N, 16.6330°E)
Time: 00:23:42
(UTC+01:00)
Language:

NOSS 3-4 (A) - Orbit

View from above orbital plane
View from above orbital plane
View from above satellite
View from above satellite

Ground track
Ground track

The orbit data is extracted from the following two-line orbital elements,

1 31701U 07027A   17010.19404763 0.00000000  00000-0  00000-0 0    04
2 31701  63.4029 126.1447 0179000  24.7509 335.2491 13.40723028    04
Epoch (UTC): 10 January 2017 04:39:25
Eccentricity: 0.0179000
inclination: 63.4029°
perigee height: 972 km
apogee height: 1240 km
right ascension of ascending node: 126.1447°
argument of perigee: 24.7509°
revolutions per day: 13.40723028
mean anomaly at epoch: 335.2491°
orbit number at epoch: 0

The dashed part of the orbit path shows where the satellite is in the earth's shadow,  

DLR